# From MPC 24084 2 Pallas,e,34.8464,173.1662,310.4231,2.773348,0.2134016,0.229971,218.0572,11/22.0/2002,2000,H 4.13,0.11 # From MPC 24084 3 Juno,e,12.9722,170.1329,247.9480,2.666923,0.2263020,0.258863,119.1462,11/22.0/2002,2000,H 5.33,0.32 # From MPC 24219 4 Vesta,e,7.1336,103.9425,149.9704,2.362082,0.2714948,0.088639,267.2420,11/22.0/2002,2000,H 3.20,0.32 # From MPO 25662 8 Flora,e,5.8874,111.0354,285.0357,2.200963,0.3018456,0.156697,184.5444,11/22.0/2002,2000,H 6.49,0.28 # From MPO 25662 9 Metis,e,5.5769,68.9872,5.5408,2.385925,0.2674354,0.122229,113.7003,11/22.0/2002,2000,H 6.28,0.17 # From MPC 24085 11 Parthenope,e,4.6244,125.6382,195.1638,2.454022,0.2563813,0.098984,179.8847,11/22.0/2002,2000,H 6.55,0.15 # From MPC 24085 12 Victoria,e,8.3625,235.5545,69.8005,2.333767,0.2764508,0.220537,274.6946,11/22.0/2002,2000,H 7.24,0.22 # From MPO 2601 13 Egeria,e,16.5373,43.3142,81.1295,2.576715,0.2382893,0.084622,197.0444,11/22.0/2002,2000,H 6.74,0.15 # From MPO 595 14 Irene,e,9.1065,86.5011,96.4799,2.585190,0.2371185,0.168020,184.1581,11/22.0/2002,2000,H 6.30,0.15 # From MPC 35055 16 Psyche,e,3.0954,150.3569,228.2792,2.919014,0.1976286,0.139685,184.8449,11/22.0/2002,2000,H 5.90,0.20 # From MPC 24219 19 Fortuna,e,1.5718,211.4302,182.2737,2.443007,0.2581172,0.158641,87.3355,11/22.0/2002,2000,H 7.13,0.10 # From MPO 2601 21 Lutetia,e,3.0645,80.9226,250.3504,2.434746,0.2594321,0.163618,227.7546,11/22.0/2002,2000,H 7.35,0.11 # From MPO 2601 22 Kalliope,e,13.7099,66.2674,356.7717,2.909223,0.1986271,0.102930,84.2712,11/22.0/2002,2000,H 6.45,0.21 # From MPO 4876 23 Thalia,e,10.1467,67.2498,59.2477,2.626835,0.2315021,0.233859,27.8514,11/22.0/2002,2000,H 6.95,0.15 # From MPC 22472 24 Themis,e,0.7600,35.9750,107.9814,3.130355,0.1779564,0.133570,7.8920,11/22.0/2002,2000,H 7.08,0.19 # From MPO 4876 27 Euterpe,e,1.5837,94.8146,356.4964,2.346604,0.2741855,0.171902,130.4412,11/22.0/2002,2000,H 7.0,0.15 # From MPC 23111 29 Amphitrite,e,6.1016,356.5438,62.3731,2.555026,0.2413299,0.071529,277.0119,11/22.0/2002,2000,H 5.85,0.20 # From MPC 24085 30 Urania,e,2.0985,307.9318,86.2425,2.365195,0.2709590,0.127323,204.6712,11/22.0/2002,2000,H 7.57,0.15 # From MPC 31001 37 Fides,e,3.0726,7.4251,63.1444,2.642516,0.2294445,0.176572,44.4032,11/22.0/2002,2000,H 7.29,0.24 # From MPC 30777 39 Laetitia,e,10.3730,157.1926,209.2913,2.771176,0.2136525,0.111709,97.7592,11/22.0/2002,2000,H 6.1,0.15 # From MPC 31001 40 Harmonia,e,4.2557,94.3118,269.5485,2.267017,0.2887500,0.047033,175.4887,11/22.0/2002,2000,H 7.0,0.15 # From MPC 31778 41 Daphne,e,15.7589,178.1969,46.0275,2.766230,0.2142257,0.272175,286.2627,11/22.0/2002,2000,H 7.12,0.10 # From MPC 24371 52 Europa,e,7.4690,129.0230,342.8269,3.099779,0.1805959,0.101399,232.6966,11/22.0/2002,2000,H 6.31,0.18 # From MPC 24085 56 Melete,e,8.0708,193.4911,103.7315,2.595422,0.2357176,0.237493,274.1028,11/22.0/2002,2000,H 8.31,0.15 # From MPC 24219 59 Elpis,e,8.6426,170.3157,210.1912,2.713513,0.2204989,0.118623,276.8909,11/22.0/2002,2000,H 7.93,0.15 # From MPC 35405 63 Ausonia,e,5.7882,337.9584,296.0092,2.395383,0.2658530,0.126051,344.2466,11/22.0/2002,2000,H 7.55,0.25 # From MPC 27086 69 Hesperia,e,8.5868,185.1827,289.8040,2.981157,0.1914815,0.164894,229.5973,11/22.0/2002,2000,H 7.05,0.19 # From MPC 25033 78 Diana,e,8.6896,333.5912,151.4916,2.620231,0.2323778,0.208356,5.0802,11/22.0/2002,2000,H 8.09,0.08 # From MPC 24548 82 Alkmene,e,2.8333,25.6534,110.5389,2.759146,0.2150513,0.225285,328.7588,11/22.0/2002,2000,H 8.40,0.28 # From MPO 595 84 Klio,e,9.3438,327.7473,14.6146,2.361195,0.2716478,0.237853,278.7837,11/22.0/2002,2000,H 9.32,0.15 # From MPO 31791 85 Io,e,11.9658,203.4521,122.4972,2.652788,0.2281131,0.192834,292.9983,11/22.0/2002,2000,H 7.61,0.15 # From MPC 30777 89 Julia,e,16.1440,311.6737,45.0591,2.552662,0.2416652,0.182077,126.1265,11/22.0/2002,2000,H 6.60,0.15 # From MPO 2601 97 Klotho,e,11.7801,159.7796,269.0024,2.669432,0.2259829,0.256698,34.7232,11/22.0/2002,2000,H 7.63,0.15 # From MPO 2601 115 Thyra,e,11.6010,309.1439,96.2809,2.379660,0.2684922,0.191951,206.6477,11/22.0/2002,2000,H 7.51,0.12 # From MPO 595 116 Sirona,e,3.5694,64.0518,92.7838,2.768756,0.2139327,0.138156,19.8553,11/22.0/2002,2000,H 7.82,0.15 # From MPC 24085 172 Baucis,e,10.0379,332.1412,359.5260,2.379288,0.2685551,0.115128,272.6197,11/22.0/2002,2000,H 8.79,0.15 # From MPC 31001 192 Nausikaa,e,6.8257,343.4664,29.8251,2.401735,0.2647991,0.247563,211.3184,11/22.0/2002,2000,H 7.13,0.03 # From MPC 26546 194 Prokne,e,18.4966,159.5473,163.0731,2.616682,0.2328507,0.236917,318.3621,11/22.0/2002,2000,H 7.68,0.15 # From MPO 2601 196 Philomela,e,7.2534,72.6488,205.2414,3.112881,0.1794570,0.024623,89.9677,11/22.0/2002,2000,H 6.54,0.15 # From MPC 30889 198 Ampella,e,9.3018,268.6909,88.2066,2.458238,0.2557220,0.229638,293.0244,11/22.0/2002,2000,H 8.33,0.15 # From MPC 31001 216 Kleopatra,e,13.1355,215.6881,179.1355,2.793114,0.2111402,0.252338,246.3272,11/22.0/2002,2000,H 7.30,0.29 # From MPC 31001 230 Athamantis,e,9.4352,239.9921,139.2513,2.381967,0.2681023,0.061942,215.8508,11/22.0/2002,2000,H 7.35,0.27 # From MPC 25033 245 Vera,e,5.1759,61.5699,327.0497,3.094902,0.1810230,0.200806,300.5979,11/22.0/2002,2000,H 7.82,0.15 # From MPC 31778 313 Chaldaea,e,11.6440,176.8327,315.7914,2.376195,0.2690798,0.180273,356.4216,11/22.0/2002,2000,H 8.90,0.15 # From MPC 22200 346 Hermentaria,e,8.7615,92.1798,290.3474,2.794895,0.2109385,0.103115,216.6908,11/22.0/2002,2000,H 7.13,0.15 # From MPC 31001 354 Eleonora,e,18.3844,140.5164,6.6989,2.800064,0.2103547,0.112484,149.9573,11/22.0/2002,2000,H 6.44,0.37 # From MPC 22473 416 Vaticana,e,12.8598,58.2294,198.6847,2.791989,0.2112680,0.217847,290.3455,11/22.0/2002,2000,H 7.89,0.20 # From MPC 31002 511 Davida,e,15.9474,107.7679,339.0978,3.168694,0.1747365,0.184064,2.3158,11/22.0/2002,2000,H 6.22,0.16 # From MPC 34570 516 Amherstia,e,12.9565,328.9158,258.4003,2.680077,0.2246380,0.272841,342.6564,11/22.0/2002,2000,H 8.27,0.15 # From MPO 33740 521 Brixia,e,10.5604,90.0473,315.1387,2.743913,0.2168446,0.278915,303.7048,11/22.0/2002,2000,H 8.31,-0.06 # From MPC 31002 532 Herculina,e,16.3084,107.6551,76.8672,2.771982,0.2135593,0.177792,142.1578,11/22.0/2002,2000,H 5.81,0.26 # From MPO 33740 584 Semiramis,e,10.7223,282.4587,84.4536,2.373154,0.2695971,0.234348,259.3711,11/22.0/2002,2000,H 8.71,0.24 # From MPC 31778 674 Rachele,e,13.4954,58.2949,42.1104,2.927230,0.1967972,0.190204,241.7275,11/22.0/2002,2000,H 7.42,0.15 # From MPC 31002 704 Interamnia,e,17.3228,280.6570,95.1062,3.065358,0.1836463,0.146465,76.0530,11/22.0/2002,2000,H 5.94,-0.02 # From MPC 28814 779 Nina,e,14.5727,283.9069,48.9950,2.664911,0.2265583,0.225317,291.9674,11/22.0/2002,2000,H 8.3,0.15 # From MPC 35406 1166 Sakuntala,e,18.8887,106.8203,189.4427,2.536104,0.2440358,0.206907,300.3475,11/22.0/2002,2000,H 8.8,0.15